Location: Eferding
(48.3167°N, 14.0167°E)
Time: 15:40:52
(UTC+00:00)

CSL-04 Debris - Pass Details

Date: 12 November 2019
Orbit: 826 x 849 km, 99.0° (Epoch: 09 December)

Event Time Altitude Azimuth Distance (km) Brightness Sun altitude
Rises 17:14:16 0° 158° (SSE) 3,400 7.2 -17.5°
Reaches altitude 10° 17:16:38 10° 157° (SSE) 2,469 6.5 -17.8°
Maximum altitude 17:22:07 77° 72° (ENE) 875 4.1 -18.7°
Drops below altitude 10° 17:27:37 10° 348° (NNW) 2,484 6.7 -19.7°
Sets 17:30:00 0° 347° (NNW) 3,422 7.5 -20.1°
